Flag Weather past 2 weeks in Dinslaken, North Rhine-Westphalia, Germany

Now
33 °F

Fog.


Feels Like: 29 °F
Forecast: 35 / 43 °F
Wind: 3 mph from East

Location: Essen

Current Time: Nov 29, 2014 at 5:15:31 AM

Latest Report: Nov 29, 2014 at 4:00 AM


Visibility: 2 mi

Pressure: 29.94 "Hg

Humidity: 96%

Dew point: 32 °F

Location of DinslakenLocation

Historic Weather in Dinslaken — Graph

°F

Dinslaken temperature yesterday

Maximum temperature yesterday: 49 °F (at 2:00 PM)
Minimum temperature yesterday: 35 °F (at 11:00 PM)
Average temperature yesterday: 42 °F

Past Weeks' High & Low Weather Summary

 TemperatureHumidityPressure
High59 °F (Nov 23, 2:00 PM)100% (Nov 16, 1:00 AM)30.36 "Hg (Nov 16, 1:00 AM)
Low33 °F (Nov 29, 3:00 AM)57% (Nov 24, 2:00 PM)29.50 "Hg (Nov 16, 3:00 PM)
Average45 °F87%29.95 "Hg
* Reported Nov 14 3:00 AM — Nov 29 3:00 AM, Dinslaken, Weather by CustomWeather, © 2014

Note: Actual official high and low records may vary slightly from our data, if they occured in-between our weather recording intervals... More about our weather records

Advertising

Dinslaken weather history for previous 24 hours

 ConditionsComfort  
Time TempWeatherWind HumidityBarometerVisibility
3:00 AM
Nov 29
33 °FFog.3 mph97%29.95 "Hg2 mi
2:00 AM34 °FFog.3 mph94%29.94 "Hg3 mi
1:00 AM34 °FFog.2 mph93%29.95 "Hg3 mi
12:00 AM35 °FFog.2 mph94%29.94 "Hg3 mi
11:00 PM
Nov 28
35 °FFog.3 mph93%29.93 "Hg3 mi
10:00 PM36 °FFog.5 mph92%29.92 "Hg4 mi
9:00 PM37 °FFog.3 mph92%29.91 "Hg3 mi
8:00 PM38 °FFog.3 mph89%29.89 "Hg4 mi
7:00 PM40 °FFog.3 mph88%29.88 "Hg4 mi
6:00 PM42 °FOvercast.2 mph86%29.86 "Hg6 mi
5:00 PM44 °FOvercast.5 mph82%29.84 "Hg6 mi
4:00 PM47 °FOvercast.5 mph79%29.83 "Hg7 mi
3:00 PM47 °FOvercast.3 mph80%29.80 "Hg7 mi
2:00 PM49 °FScattered clouds.2 mph77%29.81 "Hg7 mi
1:00 PM46 °FPassing clouds.3 mph81%29.81 "Hg6 mi
12:00 PM46 °FPartly sunny.1 mph82%29.82 "Hg6 mi
11:00 AM43 °FOvercast.2 mph90%29.82 "Hg5 mi
10:00 AM42 °FFog.2 mph92%29.82 "Hg4 mi
9:00 AM40 °FFog.3 mph96%29.80 "Hg4 mi
8:00 AM40 °FFog.2 mph95%29.79 "Hg4 mi
7:00 AM40 °FFog.1 mph96%29.78 "Hg3 mi
6:00 AM41 °FFog.3 mph93%29.77 "Hg4 mi
5:00 AM41 °FFog.3 mph95%29.78 "Hg4 mi
Weather by CustomWeather, © 2014

See weather overviewHow to use our weather pages